Location: Unspecified
(0.0000°N, 0.0000°E)
Time: 18:12:12
(UTC+00:00)

Courier 1B Rocket - Pass Details

Date: 02 October 2020
Orbit: 921 x 1202 km, 28.2° (Epoch: 27 October)

Event Time Altitude Azimuth Distance (km) Brightness Sun altitude
Rises 11:35:54 0° 316° (NW) 3,571 7.9 84.9°
Reaches altitude 10° 11:38:41 10° 325° (NW) 2,653 7.4 85.3°
Maximum altitude 11:44:29 36° 30° (NNE) 1,507 6.6 86.0°
Drops below altitude 10° 11:50:37 10° 94° (E) 2,816 7.6 86.1°
Sets 11:53:39 0° 103° (ESE) 3,818 8.1 86.0°
